Regional Weather Roundup
Issued by NWS

Home | Current Version | Previous Version | Graphics & Text | Print | Product List | Glossary On
Versions: 1 2 3 4 5 6 7 8 9 10 11 12 13 14 15 16 17 18 19 20 21 22 23 24 25 26 27 28 29 30 31 32 33 34 35 36 37 38 39 40 41 42 43 44 45 46 47 48 49 50
000
ASUS43 KBIS 301410
RWRND

NORTH DAKOTA REGIONAL WEATHER ROUNDUP
NATIONAL WEATHER SERVICE BISMARCK ND
900 AM CDT SAT APR 30 2016

NOTE: "FAIR" INDICATES FEW OR NO CLOUDS BELOW 12,000 FEET WITH NO
SIGNIFICANT WEATHER AND/OR OBSTRUCTIONS TO VISIBILITY.


NDZ001>003-009>011-017-301500-
NORTHWEST NORTH DAKOTA

CITY           SKY/WX    TMP DP  RH WIND       PRES   REMARKS
WILLISTON      SUNNY     47  31  53 N9        30.27R
MINOT          SUNNY     48  30  49 E5        30.28R
MINOT AFB      SUNNY     45  31  56 NE7       30.28R
$$

NDZ018>021-031>035-040>046-301500-
SOUTHWEST NORTH DAKOTA

CITY           SKY/WX    TMP DP  RH WIND       PRES   REMARKS
BISMARCK       CLOUDY    47  36  65 NE14      30.19R
DICKINSON      CLOUDY    41  31  67 NE14      30.17R
GARRISON         N/A     48  32  53 NE10G18   30.22S
HETTINGER ARPT CLOUDY    42  33  70 NE13      30.15R
$$

NDZ004>008-012>016-024-026-027-054-301500-
NORTHEAST NORTH DAKOTA

CITY           SKY/WX    TMP DP  RH WIND       PRES   REMARKS
GRAND FORKS    MOSUNNY   49  34  56 NE14      30.28S
GRND FRKS AFB  SUNNY     49  34  57 E12       30.28F
DEVILS LAKE    SUNNY     47  34  60 E14       30.28R
$$

NDZ022-023-025-028>030-036>039-047>053-301500-
SOUTHEAST NORTH DAKOTA

CITY           SKY/WX    TMP DP  RH WIND       PRES   REMARKS
FARGO          SUNNY     49  33  54 NE20      30.20S
JAMESTOWN      MOSUNNY   47  33  58 E15       30.20R
$$




USA.gov is the U.S. government's official web portal to all federal, state and local government web resources and services.